Regional Weather Roundup
Issued by NWS Grand Forks, ND

Home | Current Version | Previous Version | Text Only | Print | Product List | Glossary Off
Versions: 1 2 3 4 5 6 7 8 9 10 11 12 13 14 15 16 17 18 19 20 21 22 23 24 25 26 27 28 29 30 31 32 33 34 35 36 37 38 39 40 41 42 43 44 45 46 47 48 49 50

065
ASUS43 KFGF 211931
RWRFGF
PRAIRIE TO PINES  WEATHER ROUNDUP
NATIONAL WEATHER SERVICE EASTERN NORTH DAKOTA/GRAND FORKS ND
100 PM CST SAT JAN 21 2017

 **SATELLITE DATA USED TO AUGMENT SKY COVER AT AUTOMATED STATIONS**
 *****  WEATHER ACROSS EASTERN NORTH DAKOTA  *****

CITY           SKY/WX    TMP DP  RH WIND       PRES   REMARKS
GRAND FORKS    CLOUDY    37  32  82 CALM      29.41S
GRAND FRKS AFB CLOUDY    36  34  93 SE5       29.41F
DEVILS LAKE    LGT RAIN  34  34 100 SE7       29.38S VSB 1/4
FARGO          CLOUDY    39  35  86 S6        29.40S
WAHPETON ARPT  CLOUDY    34  32  93 SE5       29.40S
$$

 ***** WEATHER ACROSS CENTRAL AND WESTERN NORTH DAKOTA  *****

CITY           SKY/WX    TMP DP  RH WIND       PRES   REMARKS
BISMARCK       CLOUDY    30  27  88 SW5       29.38S FOG
MINOT          CLOUDY    31  28  89 S6        29.35S
JAMESTOWN      CLOUDY    33  33 100 SE6       29.36S FOG
MINOT AFB      PTSUNNY   28  27  93 SW6       29.35R WCI  22
GARRISON         N/A     24  23  96 W7        29.35F WCI  16
WILLISTON      CLOUDY    31  25  78 W8        29.36S WCI  23
DICKINSON      CLOUDY    32  26  78 W12       29.33S WCI  23
HETTINGER      PTSUNNY   33  27  78 NW13      29.36F WCI  24
$$

 *****  OTHER AIRPORT OBSERVATIONS IN OUR AREA  *****

CITY           SKY/WX    TMP DP  RH WIND       PRES   REMARKS
WALHALLA       NOT AVBL
GRAFTON AIRPOR CLOUDY    34  34 100 CALM      29.44S
VALLEY CITY AR CLOUDY    32  32 100 SE8       29.39S WCI  25
CANDO          NOT AVBL
CAVALIER APRT  CLOUDY    36  36 100 SE3       29.43S FOG
GWINNER        CLOUDY    34  34 100 SE6       29.38S
SHEYENNE NWR     N/A     34  34 100 SE7       29.95S
ROLLA            N/A    N/A N/A N/A MISG        N/A
 ***** THE ABOVE OBSERVATIONS ARE NON NWS ARE NOT QUALITY
       CONTROLLED AND MAY MIS-REPORT RAIN FOR SNOW...
$$

  *****  WEATHER ACROSS NORTHERN MINNESOTA  *****

CITY           SKY/WX    TMP DP  RH WIND       PRES   REMARKS
FLAG ISLAND    CLOUDY    36  34  93 E3        29.47S
WARROAD        CLOUDY    36  30  80 E8        29.46S
ROSEAU         CLOUDY    37  32  81 E7        29.45R
HALLOCK        CLOUDY    37  36  93 CALM      29.43S
THF RVR FALLS  CLOUDY    37  33  85 E10       29.43S
BAUDETTE       CLOUDY    34  33  96 SE7       29.46F
WASKISH        CLOUDY    37  36  93 E5        29.45F
CROOKSTON      CLOUDY    37  36  93 E3        29.42S
STEPHEN NDAWN    N/A     36  34  93 E6          N/A
GREENBUSH NDAW   N/A     36  34  93 E7          N/A
$$
  *****  WEATHER ACROSS CENTRAL AND WEST MINNESOTA  *****

CITY           SKY/WX    TMP DP  RH WIND       PRES   REMARKS
FOSSTON        CLOUDY    36  34  93 E6        29.41F
BEMIDJI        FOG       33  33 100 E7        29.41F VSB 1/4
PARK RAPIDS    CLOUDY    36  33  89 E3        29.40S
ELBOW LAKE     CLOUDY    34  34 100 SE8       29.39S FOG
WADENA         FOG       34  34 100 E3        29.39F VSB 3/4
DETROIT LAKES  CLOUDY    36  34  93 SE7       29.40S
MOORHEAD       CLOUDY    36  34  93 S5        29.41S
FERGUS FALLS   CLOUDY    37  37 100 SE6       29.43R
MORRIS MN      FOG       36  36 100 E8        29.37F VSB 1/4
STAPLES        CLOUDY    36  36 100 CALM      29.40S FOG
$$
  *****  WEATHER ELSEWHERE ACROSS MINNESOTA  *****

CITY           SKY/WX    TMP DP  RH WIND       PRES   REMARKS
DULUTH         CLOUDY    35  34  96 E10       29.43F FOG
INTRNTL FALLS  CLOUDY    35  33  92 E5        29.47F
ELY            CLOUDY    36  34  93 E5        29.46F
CLOQUET        LGT SNOW  36  34  93 NE8       29.42F
WHEATON        FOG       43  43 100 SE5       29.41S VSB 1
BRAINERD       CLOUDY    35  35 100 E5        29.41F FOG
HIBBING        CLOUDY    33  33 100 E5        29.44S FOG
ALEXANDRIA     CLOUDY    34  34 100 E9        29.38F FOG
SAINT CLOUD    FOG       34  34 100 NE3       29.39F VSB 1/2
MINNEAPOLIS    CLOUDY    37  34  89 SE7       29.39S
$$

  *****  WEATHER ACROSS SOUTH DAKOTA  *****

CITY           SKY/WX    TMP DP  RH WIND       PRES   REMARKS
SIOUX FALLS    CLOUDY    32  31  96 SW5       29.38F
BROOKINGS      CLOUDY    33  32  96 W8        29.35S FOG
WATERTOWN      CLOUDY    34  34 100 SW3       29.34S FOG
HURON          CLOUDY    30  28  92 NW6       29.39S WCI  24
SISSETON         N/A     34  34 100 S7        29.37F
ABERDEEN       CLOUDY    31  26  82 SW3       29.38S
MITCHELL       CLOUDY    33  28  81 W12       29.40S WCI  24
PIERRE         CLOUDY    27  26  96 W3        29.37F FOG
MOBRIDGE       CLOUDY    29  25  85 NW7       29.35S WCI  22
RAPID CITY     FAIR      39  31  72 S6        29.40R
$$

  *****  SOME WEATHER IN NEARBY STATES *****

CITY           SKY/WX    TMP DP  RH WIND       PRES   REMARKS
GLASGOW MT     FAIR      21  18  88 W10       29.40R WCI  10
GREAT FALLS MT FAIR      29  21  72 W7        29.43R WCI  22
CHEYENNE WY    FAIR      38  17  42 SE9       29.37F
SCOTTSBLUFF NE FAIR      38  27  64 E5        29.41F
OMAHA NE       PTSUNNY   49  38  65 SW5       29.43F
DES MOINES IA  CLOUDY    46  42  86 SW13G20   29.44S
DAVENPORT IA   CLOUDY    44  42  93 SW9       29.46S
CHICAGO IL     FAIR      58  44  60 SW16G23   29.45F
EAU CLAIRE WI  CLOUDY    36  36 100 E5        29.39S FOG
LA CROSSE WI   FOG       41  39  93 S3        29.40F VSB 3/4
$$

  *****  SOME NATIONAL WEATHER *****

CITY           SKY/WX    TMP DP  RH WIND       PRES   REMARKS
LA GUARDIA NY  FAIR      51  44  77 VRB6      29.80F
RALEIGH NC     FOG       53  52  96 E6        29.82F VSB 1/8
ATLANTA GA     CLOUDY    61  59  93 NE10      29.63R
NEW ORLEANS LA CLOUDY    72  64  76 SE7       29.64F
OKLAHOMA CITY  PTSUNNY   56  39  53 SE13      29.44F
ALBUQUERQUE NM PTSUNNY   45  25  45 W22G30    29.49F
SALT LAKE CITY SNOW      32  31  96 NW7       29.58R VSB 1/2
LOS ANGELES CA FAIR      58  46  64 W24       29.92R
BOISE ID       CLOUDY    34  32  92 E7        29.57R FOG
SEATTLE WA     CLOUDY    46  37  71 CALM      29.39R
$$

*** WEATHER ACROSS MANITOBA...SASKATCHEWAN AND ONTARIO ***
                ***ONTARIO***

CITY           SKY/WX    TMP DP  RH WIND       PRES   REMARKS
GERALDTON      DRIZZLE   34  34 100 E6        29.59F
THUNDER BAY    CLOUDY    34  34 100 E5        29.56F FOG
SIOUX LOOKOUT  CLOUDY    36  34  93 SE5       29.51F
TORONTO        CLOUDY    43  41  93 E3        29.70F FOG
BIG TROUT LK   FLURRIES  28  28 100 SE8       29.69R WCI  20
PICKLE LAKE    LGT SNOW  34  32  93 E8        29.57F
DRYDEN         CLOUDY    36  34  93 SE3       29.49F
KENORA         CLOUDY    34  34 100 E7        29.47F
$$
                *** MANITOBA***

CITY           SKY/WX    TMP DP  RH WIND       PRES   REMARKS
BRANDON        FOG       34  32  93 E5        29.38F VSB 3/4
DAUPHIN        PTSUNNY   34  32  93 SE8       29.41S FOG
ISLAND LAKE    LGT RAIN  32  32 100 E3        29.57S FOG
PILOT MOUND      N/A     32  32 100 SE9         N/A  WCI  24
THE PAS        DRIZZLE   34  32  93 SE9       29.44S
THOMPSON       LGT SNOW  30  28  93 E7        29.58S FOG     WCI  23
WINNIPEG       DRIZZLE   36  34  93 SE6       29.45S
LYNN LAKE      LGT SNOW  28  28 100 E7        29.57R WCI  21
CHURCHILL      CLOUDY    18  16  93 SE15      29.82R WCI   3
GILLAM         LGT SNOW  28  27  93 E7        29.68S FOG     WCI  21
$$
                ***SASKATCHEWAN***

CITY           SKY/WX    TMP DP  RH WIND       PRES   REMARKS
ESTEVAN        FOG       19  18  93 VRB2      29.35R VSB 1/8
KINDERSLEY     FOG       27  27 100 N8        29.41S VSB 1/8 WCI  18
LLOYDMINSTER   FOG       25  25 100 N7        29.48R VSB 1/2 WCI  17
PRINCE ALBERT  CLOUDY    27  23  86 NE6       29.42S WCI  20
REGINA         CLOUDY    27  25  93 NW10      29.34R FOG     WCI  17
YORKTON        LGT SNOW  32  30  93 SE8       29.35S WCI  25
N. BATTLEFORD  CLOUDY    28 N/A N/A N12       29.45S WCI  18
LA RONGE       FLURRIES  25  25 100 NE8       29.49S WCI  16
SASKATOON      CLOUDY    28  27  93 N8        29.42R WCI  20
SWIFT CURRENT  FRZ RAIN  25  25 100 NW13      29.36S VSB 1/8 WCI  13
$$
NOTE: THESE ARE AUTOMATED STATIONS WITH LIMITED QUALITY CONTROL
      "FAIR" INDICATES FEW OR NO CLOUDS BELOW 12,000 FEET WITH NO
      SIGNIFICANT WEATHER AND/OR OBSTRUCTIONS TO VISIBILITY.
      SKY/WX - SKY CONDITION AND SIGNIFICANT WEATHER.
      TMP - AIR TEMPERATURE.    DP   - DEWPOINT TEMPERATURE.
      RH  - RELATIVE HUMIDITY.  PRES - PRESSURE.
      HX  - HEAT INDEX.         WCI  - WIND CHILL INDEX.
$




USA.gov is the U.S. government's official web portal to all federal, state and local government web resources and services.